JLY3101 SBBR-SBCG

Flight info

Callsign JLY3101
Flight time 1h 18m
Altitude 36000
Route SIREM UM544 VUROB
Aircraft B738/M-SDE2E3FGHIRWXY/LB1

Departure

Time 2026-04-20 00:35
Airport Presidente Juscelino Kubitschek International Airport (SBBR)

Arrival

Time 2026-04-20 01:54
Airport Campo Grande Airport (SBCG)
Time Latitude Longitude Altitude Speed Heading
2026-04-19 23:40 -15.86864 -47.92804 3467 ft 0 kts 176°
2026-04-20 00:24 -15.86863 -47.92804 3467 ft 1 kts 176°
2026-04-20 00:25 -15.86848 -47.92806 3467 ft 3 kts 167°
2026-04-20 00:25 -15.86829 -47.92812 3467 ft 3 kts 146°
2026-04-20 00:25 -15.86815 -47.92825 3467 ft 3 kts 112°
2026-04-20 00:25 -15.86812 -47.92838 3466 ft 1 kts 86°
2026-04-20 00:29 -15.86811 -47.92816 3464 ft 0 kts 86°
2026-04-20 00:30 -15.86810 -47.92809 3467 ft 2 kts 88°
2026-04-20 00:30 -15.86808 -47.92779 3467 ft 6 kts 85°
2026-04-20 00:31 -15.86804 -47.92714 3467 ft 11 kts 86°
2026-04-20 00:31 -15.86798 -47.92633 3467 ft 11 kts 86°
2026-04-20 00:31 -15.86792 -47.92556 3468 ft 11 kts 80°
2026-04-20 00:31 -15.86743 -47.92504 3470 ft 10 kts 31°
2026-04-20 00:32 -15.86675 -47.92465 3469 ft 13 kts 27°
2026-04-20 00:32 -15.86607 -47.92429 3470 ft 10 kts 28°
2026-04-20 00:32 -15.86540 -47.92435 3468 ft 12 kts 297°
2026-04-20 00:32 -15.86537 -47.92535 3465 ft 15 kts 265°
2026-04-20 00:33 -15.86546 -47.92655 3463 ft 18 kts 265°
2026-04-20 00:33 -15.86543 -47.92745 3462 ft 10 kts 295°
2026-04-20 00:33 -15.86494 -47.92770 3458 ft 5 kts
2026-04-20 00:33 -15.86457 -47.92769 3460 ft 7 kts
2026-04-20 00:34 -15.86400 -47.92750 3459 ft 10 kts 34°
2026-04-20 00:34 -15.86368 -47.92733 3458 ft 4 kts 29°
2026-04-20 00:34 -15.86356 -47.92710 3459 ft 4 kts 75°
2026-04-20 00:34 -15.86353 -47.92685 3459 ft 4 kts 87°
2026-04-20 00:35 -15.86344 -47.92549 3462 ft 55 kts 86°
2026-04-20 00:35 -15.86299 -47.91846 3463 ft 138 kts 86°
2026-04-20 00:35 -15.86217 -47.90633 3686 ft 187 kts 84°
2026-04-20 00:35 -15.86015 -47.89303 4702 ft 183 kts 89°
2026-04-20 00:36 -15.86398 -47.87992 5346 ft 209 kts 124°
2026-04-20 00:36 -15.87672 -47.87070 5636 ft 245 kts 162°
2026-04-20 00:36 -15.89406 -47.86889 6310 ft 258 kts 175°
2026-04-20 00:36 -15.91275 -47.86784 6824 ft 279 kts 174°
2026-04-20 00:37 -15.93216 -47.86622 7861 ft 278 kts 173°
2026-04-20 00:37 -15.95137 -47.86382 8788 ft 279 kts 171°
2026-04-20 00:37 -15.97049 -47.86091 9067 ft 279 kts 170°
2026-04-20 00:37 -15.98960 -47.85775 9076 ft 278 kts 169°
2026-04-20 00:38 -16.00873 -47.85453 9112 ft 282 kts 170°
2026-04-20 00:38 -16.02838 -47.85195 9791 ft 288 kts 181°
2026-04-20 00:38 -16.04762 -47.85700 10879 ft 289 kts 205°
2026-04-20 00:38 -16.06343 -47.87017 11814 ft 299 kts 230°
2026-04-20 00:39 -16.07258 -47.88981 12660 ft 310 kts 256°
2026-04-20 00:39 -16.07497 -47.91236 13476 ft 321 kts 265°
2026-04-20 00:39 -16.07621 -47.93651 13720 ft 349 kts 266°
2026-04-20 00:39 -16.07753 -47.96261 13908 ft 374 kts 266°
2026-04-20 00:40 -16.08196 -47.98993 14026 ft 395 kts 248°
2026-04-20 00:40 -16.09486 -48.01574 14192 ft 410 kts 238°
2026-04-20 00:40 -16.10931 -48.04173 14538 ft 419 kts 239°
2026-04-20 00:40 -16.12374 -48.06826 15046 ft 422 kts 239°
2026-04-20 00:41 -16.13795 -48.09502 15604 ft 424 kts 240°
2026-04-20 00:41 -16.15211 -48.12198 16137 ft 426 kts 240°
2026-04-20 00:41 -16.16635 -48.14915 16634 ft 429 kts 240°
2026-04-20 00:41 -16.18068 -48.17645 17117 ft 432 kts 240°
2026-04-20 00:42 -16.19513 -48.20396 17601 ft 434 kts 240°
2026-04-20 00:42 -16.20965 -48.23161 18060 ft 437 kts 240°
2026-04-20 00:42 -16.22427 -48.25947 18464 ft 440 kts 240°
2026-04-20 00:42 -16.23903 -48.28746 18847 ft 442 kts 239°
2026-04-20 00:43 -16.25678 -48.31352 19228 ft 442 kts 228°
2026-04-20 00:43 -16.27727 -48.33683 19629 ft 443 kts 226°
2026-04-20 00:43 -16.29859 -48.36010 20005 ft 445 kts 225°
2026-04-20 00:43 -16.31999 -48.38350 20357 ft 447 kts 226°
2026-04-20 00:44 -16.34135 -48.40719 20702 ft 450 kts 226°
2026-04-20 00:44 -16.36259 -48.43113 21052 ft 451 kts 227°
2026-04-20 00:44 -16.38382 -48.45531 21385 ft 453 kts 227°
2026-04-20 00:44 -16.40507 -48.47964 21714 ft 455 kts 227°
2026-04-20 00:45 -16.42637 -48.50408 22048 ft 456 kts 227°
2026-04-20 00:45 -16.44776 -48.52864 22388 ft 457 kts 227°
2026-04-20 00:45 -16.46913 -48.55317 22690 ft 459 kts 227°
2026-04-20 00:45 -16.49065 -48.57787 22975 ft 461 kts 227°
2026-04-20 00:46 -16.51223 -48.60263 23250 ft 463 kts 227°
2026-04-20 00:46 -16.52658 -48.61908 23425 ft 464 kts 227°
2026-04-20 00:46 -16.54777 -48.64446 23668 ft 465 kts 233°
2026-04-20 00:46 -16.56313 -48.67413 23890 ft 467 kts 248°
2026-04-20 00:47 -16.57487 -48.70570 24182 ft 466 kts 248°
2026-04-20 00:47 -16.58666 -48.73717 24442 ft 466 kts 248°
2026-04-20 00:47 -16.59864 -48.76860 24668 ft 467 kts 247°
2026-04-20 00:47 -16.61079 -48.80001 24883 ft 467 kts 247°
2026-04-20 00:48 -16.62305 -48.83140 25099 ft 468 kts 247°
2026-04-20 00:48 -16.63539 -48.86279 25313 ft 468 kts 247°
2026-04-20 00:48 -16.64778 -48.89425 25533 ft 469 kts 247°
2026-04-20 00:48 -16.66019 -48.92574 25755 ft 469 kts 247°
2026-04-20 00:49 -16.67257 -48.95721 25944 ft 470 kts 247°
2026-04-20 00:49 -16.68496 -48.98871 26141 ft 470 kts 247°
2026-04-20 00:49 -16.69735 -49.02027 26377 ft 469 kts 247°
2026-04-20 00:49 -16.70968 -49.05169 26684 ft 467 kts 247°
2026-04-20 00:50 -16.72192 -49.08291 27031 ft 464 kts 247°
2026-04-20 00:50 -16.73408 -49.11396 27384 ft 461 kts 247°
2026-04-20 00:50 -16.74617 -49.14481 27743 ft 458 kts 247°
2026-04-20 00:50 -16.75819 -49.17551 28101 ft 456 kts 247°
2026-04-20 00:51 -16.77013 -49.20603 28473 ft 453 kts 247°
2026-04-20 00:51 -16.78202 -49.23643 28861 ft 451 kts 247°
2026-04-20 00:51 -16.79381 -49.26660 29253 ft 448 kts 247°
2026-04-20 00:51 -16.80554 -49.29662 29658 ft 445 kts 247°
2026-04-20 00:52 -16.81704 -49.32605 30069 ft 443 kts 247°
2026-04-20 00:52 -16.82861 -49.35572 30407 ft 441 kts 247°
2026-04-20 00:52 -16.84015 -49.38529 30709 ft 440 kts 247°
2026-04-20 00:52 -16.85168 -49.41485 31019 ft 439 kts 247°
2026-04-20 00:53 -16.86316 -49.44432 31355 ft 437 kts 247°
2026-04-20 00:53 -16.87459 -49.47365 31705 ft 436 kts 247°
2026-04-20 00:53 -16.88596 -49.50286 32062 ft 434 kts 247°
2026-04-20 00:53 -16.89731 -49.53204 32431 ft 433 kts 247°
2026-04-20 00:54 -16.90863 -49.56113 32781 ft 432 kts 247°
2026-04-20 00:54 -16.91993 -49.59018 33146 ft 431 kts 247°
2026-04-20 00:54 -16.93173 -49.61882 33539 ft 429 kts 243°
2026-04-20 00:54 -16.94661 -49.64575 33944 ft 427 kts 235°
2026-04-20 00:55 -16.96465 -49.67034 34295 ft 426 kts 232°
2026-04-20 00:55 -16.98295 -49.69456 34666 ft 424 kts 233°
2026-04-20 00:55 -17.00104 -49.71875 35026 ft 422 kts 233°
2026-04-20 00:55 -17.01898 -49.74303 35334 ft 422 kts 233°
2026-04-20 00:56 -17.03682 -49.76730 35672 ft 421 kts 233°
2026-04-20 00:56 -17.05453 -49.79159 35935 ft 421 kts 234°
2026-04-20 00:56 -17.07225 -49.81607 35936 ft 422 kts 234°
2026-04-20 00:57 -17.10710 -49.86436 35947 ft 415 kts 234°
2026-04-20 00:57 -17.14163 -49.91220 35954 ft 412 kts 234°
2026-04-20 00:58 -17.17609 -49.95995 35954 ft 411 kts 234°
2026-04-20 00:58 -17.21054 -50.00770 35950 ft 412 kts 234°
2026-04-20 00:59 -17.24503 -50.05554 35948 ft 412 kts 234°
2026-04-20 00:59 -17.27958 -50.10348 35946 ft 413 kts 234°
2026-04-20 01:00 -17.31421 -50.15158 35945 ft 414 kts 234°
2026-04-20 01:00 -17.34885 -50.19973 35949 ft 415 kts 234°
2026-04-20 01:01 -17.38358 -50.24804 35948 ft 415 kts 234°
2026-04-20 01:01 -17.41833 -50.29640 35948 ft 416 kts 234°
2026-04-20 01:02 -17.45316 -50.34487 35945 ft 417 kts 234°
2026-04-20 01:02 -17.48808 -50.39335 35950 ft 417 kts 234°
2026-04-20 01:03 -17.52303 -50.44188 35946 ft 417 kts 234°
2026-04-20 01:03 -17.55797 -50.49047 35949 ft 418 kts 234°
2026-04-20 01:04 -17.59270 -50.53881 35961 ft 418 kts 234°
2026-04-20 01:04 -17.62767 -50.58750 35955 ft 418 kts 234°
2026-04-20 01:05 -17.66267 -50.63615 35958 ft 418 kts 234°
2026-04-20 01:05 -17.69769 -50.68479 35956 ft 418 kts 234°
2026-04-20 01:06 -17.73268 -50.73344 35971 ft 418 kts 234°
2026-04-20 01:06 -17.76769 -50.78217 35977 ft 418 kts 234°
2026-04-20 01:07 -17.80265 -50.83087 35973 ft 418 kts 234°
2026-04-20 01:07 -17.83761 -50.87962 35969 ft 418 kts 234°
2026-04-20 01:08 -17.87254 -50.92834 35967 ft 418 kts 234°
2026-04-20 01:08 -17.90744 -50.97708 35977 ft 418 kts 234°
2026-04-20 01:09 -17.94233 -51.02586 35971 ft 418 kts 234°
2026-04-20 01:09 -17.97722 -51.07469 35970 ft 418 kts 234°
2026-04-20 01:10 -18.01204 -51.12345 35977 ft 418 kts 234°
2026-04-20 01:10 -18.06410 -51.19643 35976 ft 418 kts 234°
2026-04-20 01:11 -18.09892 -51.24529 35973 ft 418 kts 234°
2026-04-20 01:11 -18.13376 -51.29420 35969 ft 418 kts 234°
2026-04-20 01:12 -18.16861 -51.34317 35975 ft 418 kts 234°
2026-04-20 01:12 -18.20341 -51.39213 35962 ft 418 kts 234°
2026-04-20 01:13 -18.23819 -51.44108 35960 ft 418 kts 234°
2026-04-20 01:13 -18.27293 -51.49006 35962 ft 417 kts 234°
2026-04-20 01:14 -18.30755 -51.53912 35963 ft 417 kts 234°
2026-04-20 01:14 -18.34212 -51.58815 35962 ft 417 kts 234°
2026-04-20 01:15 -18.37655 -51.63726 35959 ft 417 kts 234°
2026-04-20 01:15 -18.41090 -51.68644 35958 ft 417 kts 234°
2026-04-20 01:16 -18.44526 -51.73561 35954 ft 417 kts 234°
2026-04-20 01:16 -18.47982 -51.78473 35962 ft 417 kts 234°
2026-04-20 01:17 -18.51451 -51.83372 35954 ft 417 kts 234°
2026-04-20 01:17 -18.54871 -51.88312 35953 ft 417 kts 238°
2026-04-20 01:18 -18.57927 -51.93439 35886 ft 421 kts 224°
2026-04-20 01:18 -18.60378 -51.95138 35842 ft 429 kts 206°
2026-04-20 01:18 -18.63193 -51.96157 36073 ft 425 kts 202°
2026-04-20 01:19 -18.66008 -51.97139 35941 ft 428 kts 202°
2026-04-20 01:19 -18.68711 -51.98386 35955 ft 420 kts 217°
2026-04-20 01:19 -18.70768 -52.00511 35956 ft 414 kts 238°
2026-04-20 01:19 -18.71887 -52.03291 35963 ft 415 kts 257°
2026-04-20 01:20 -18.72643 -52.09336 35964 ft 416 kts 259°
2026-04-20 01:20 -18.74359 -52.15128 35956 ft 415 kts 243°
2026-04-20 01:21 -18.77387 -52.20310 35968 ft 416 kts 235°
2026-04-20 01:21 -18.80848 -52.25220 35969 ft 419 kts 234°
2026-04-20 01:22 -18.84384 -52.30178 35963 ft 425 kts 234°
2026-04-20 01:22 -18.87910 -52.35194 35964 ft 426 kts 234°
2026-04-20 01:23 -18.91427 -52.40221 35958 ft 426 kts 234°
2026-04-20 01:23 -18.94940 -52.45262 35956 ft 426 kts 234°
2026-04-20 01:24 -18.98442 -52.50298 35966 ft 425 kts 234°
2026-04-20 01:24 -19.01933 -52.55321 35951 ft 423 kts 234°
2026-04-20 01:25 -19.05413 -52.60331 35952 ft 422 kts 234°
2026-04-20 01:25 -19.08862 -52.65295 35958 ft 421 kts 234°
2026-04-20 01:26 -19.12335 -52.70288 35954 ft 421 kts 234°
2026-04-20 01:26 -19.15802 -52.75278 35956 ft 421 kts 234°
2026-04-20 01:27 -19.19267 -52.80270 35952 ft 421 kts 234°
2026-04-20 01:27 -19.22732 -52.85267 35949 ft 421 kts 234°
2026-04-20 01:28 -19.26194 -52.90266 35951 ft 421 kts 235°
2026-04-20 01:28 -19.29655 -52.95265 35950 ft 421 kts 235°
2026-04-20 01:29 -19.33116 -53.00268 35951 ft 421 kts 235°
2026-04-20 01:29 -19.36578 -53.05277 35945 ft 421 kts 235°
2026-04-20 01:30 -19.40035 -53.10284 35957 ft 421 kts 235°
2026-04-20 01:30 -19.43488 -53.15289 35946 ft 420 kts 235°
2026-04-20 01:31 -19.46936 -53.20290 35946 ft 420 kts 235°
2026-04-20 01:31 -19.50377 -53.25286 35946 ft 419 kts 235°
2026-04-20 01:32 -19.53813 -53.30279 35939 ft 419 kts 235°
2026-04-20 01:32 -19.57245 -53.35269 35943 ft 417 kts 235°
2026-04-20 01:33 -19.60635 -53.40203 35936 ft 411 kts 235°
2026-04-20 01:33 -19.64002 -53.45107 35944 ft 411 kts 235°
2026-04-20 01:34 -19.67347 -53.49986 35944 ft 412 kts 235°
2026-04-20 01:34 -19.69042 -53.52459 35425 ft 417 kts 235°
2026-04-20 01:34 -19.70744 -53.54942 34793 ft 415 kts 234°
2026-04-20 01:35 -19.72442 -53.57420 34117 ft 415 kts 234°
2026-04-20 01:35 -19.74139 -53.59897 33258 ft 417 kts 234°
2026-04-20 01:35 -19.75843 -53.62383 32545 ft 416 kts 234°
2026-04-20 01:35 -19.77541 -53.64861 31829 ft 414 kts 234°
2026-04-20 01:36 -19.79232 -53.67330 31135 ft 413 kts 234°
2026-04-20 01:36 -19.80920 -53.69795 30392 ft 413 kts 235°
2026-04-20 01:36 -19.82608 -53.72264 29574 ft 413 kts 235°
2026-04-20 01:36 -19.84293 -53.74729 28729 ft 412 kts 235°
2026-04-20 01:37 -19.85973 -53.77188 27908 ft 410 kts 234°
2026-04-20 01:37 -19.87653 -53.79648 27095 ft 414 kts 234°
2026-04-20 01:37 -19.89384 -53.82184 26226 ft 437 kts 234°
2026-04-20 01:37 -19.91218 -53.84873 25247 ft 460 kts 234°
2026-04-20 01:38 -19.93103 -53.87637 24511 ft 460 kts 234°
2026-04-20 01:38 -19.94964 -53.90365 23783 ft 452 kts 234°
2026-04-20 01:38 -19.96178 -53.92146 23265 ft 447 kts 234°
2026-04-20 01:38 -19.97986 -53.94799 22511 ft 439 kts 234°
2026-04-20 01:39 -20.00354 -53.98276 21575 ft 429 kts 234°
2026-04-20 01:39 -20.01511 -53.99977 21139 ft 425 kts 234°
2026-04-20 01:39 -20.03232 -54.02506 20463 ft 419 kts 234°
2026-04-20 01:39 -20.04943 -54.05022 19811 ft 425 kts 233°
2026-04-20 01:40 -20.06708 -54.07618 19132 ft 438 kts 233°
2026-04-20 01:40 -20.08527 -54.10208 18417 ft 434 kts 230°
2026-04-20 01:40 -20.10527 -54.12599 17540 ft 430 kts 226°
2026-04-20 01:40 -20.12575 -54.14891 16608 ft 426 kts 225°
2026-04-20 01:41 -20.14623 -54.17158 15687 ft 423 kts 225°
2026-04-20 01:41 -20.16644 -54.19417 14821 ft 420 kts 226°
2026-04-20 01:41 -20.18636 -54.21671 14003 ft 416 kts 226°
2026-04-20 01:41 -20.20597 -54.23912 13135 ft 412 kts 226°
2026-04-20 01:42 -20.22533 -54.26134 12447 ft 405 kts 227°
2026-04-20 01:42 -20.24415 -54.28295 12140 ft 389 kts 227°
2026-04-20 01:42 -20.26212 -54.30359 11948 ft 371 kts 227°
2026-04-20 01:42 -20.27937 -54.32339 11684 ft 359 kts 227°
2026-04-20 01:43 -20.29610 -54.34261 11427 ft 348 kts 227°
2026-04-20 01:43 -20.31233 -54.36125 11173 ft 338 kts 227°
2026-04-20 01:43 -20.32812 -54.37939 10923 ft 330 kts 226°
2026-04-20 01:43 -20.34351 -54.39709 10686 ft 322 kts 226°
2026-04-20 01:44 -20.35856 -54.41440 10454 ft 315 kts 226°
2026-04-20 01:44 -20.37329 -54.43134 10226 ft 308 kts 226°
2026-04-20 01:44 -20.38774 -54.44797 10001 ft 303 kts 226°
2026-04-20 01:44 -20.40190 -54.46426 9800 ft 297 kts 226°
2026-04-20 01:45 -20.41644 -54.47963 9566 ft 291 kts 222°
2026-04-20 01:45 -20.43139 -54.49392 9346 ft 287 kts 220°
2026-04-20 01:45 -20.44631 -54.50796 9142 ft 286 kts 220°
2026-04-20 01:45 -20.46123 -54.52206 8919 ft 287 kts 220°
2026-04-20 01:46 -20.47608 -54.53622 8715 ft 286 kts 221°
2026-04-20 01:46 -20.49088 -54.55041 8501 ft 286 kts 221°
2026-04-20 01:46 -20.50564 -54.56461 8308 ft 286 kts 221°
2026-04-20 01:46 -20.52038 -54.57881 8095 ft 286 kts 221°
2026-04-20 01:47 -20.53515 -54.59304 7845 ft 287 kts 221°
2026-04-20 01:47 -20.54999 -54.60734 7597 ft 288 kts 221°
2026-04-20 01:47 -20.56487 -54.62168 7335 ft 287 kts 221°
2026-04-20 01:47 -20.57942 -54.63572 7075 ft 284 kts 221°
2026-04-20 01:48 -20.59399 -54.64977 6823 ft 281 kts 221°
2026-04-20 01:48 -20.60840 -54.66368 6560 ft 278 kts 221°
2026-04-20 01:48 -20.62268 -54.67746 6313 ft 276 kts 221°
2026-04-20 01:48 -20.63686 -54.69115 6052 ft 274 kts 221°
2026-04-20 01:49 -20.64932 -54.70633 5784 ft 274 kts 242°
2026-04-20 01:49 -20.65357 -54.72554 5669 ft 261 kts 272°
2026-04-20 01:49 -20.64958 -54.74359 5592 ft 241 kts 296°
2026-04-20 01:49 -20.64066 -54.75798 5494 ft 226 kts 312°
2026-04-20 01:50 -20.63044 -54.77004 5331 ft 215 kts 315°
2026-04-20 01:50 -20.62028 -54.78160 4997 ft 213 kts 317°
2026-04-20 01:50 -20.60786 -54.78917 4781 ft 200 kts 350°
2026-04-20 01:50 -20.59458 -54.78909 4632 ft 188 kts 18°
2026-04-20 01:51 -20.58372 -54.78222 4439 ft 180 kts 38°
2026-04-20 01:51 -20.57363 -54.77397 4189 ft 184 kts 41°
2026-04-20 01:51 -20.56387 -54.76494 3949 ft 187 kts 43°
2026-04-20 01:51 -20.55445 -54.75584 3727 ft 177 kts 43°
2026-04-20 01:52 -20.54546 -54.74711 3534 ft 175 kts 44°
2026-04-20 01:52 -20.53646 -54.73838 3300 ft 174 kts 44°
2026-04-20 01:52 -20.52749 -54.72968 3091 ft 174 kts 44°
2026-04-20 01:52 -20.51880 -54.72126 2861 ft 166 kts 44°
2026-04-20 01:53 -20.51032 -54.71303 2678 ft 164 kts 43°
2026-04-20 01:53 -20.50186 -54.70477 2484 ft 167 kts 43°
2026-04-20 01:53 -20.49328 -54.69653 2261 ft 164 kts 42°
2026-04-20 01:53 -20.48497 -54.68837 2043 ft 161 kts 41°
2026-04-20 01:54 -20.47673 -54.68046 1858 ft 156 kts 41°
2026-04-20 01:54 -20.46941 -54.67339 1838 ft 124 kts 41°
2026-04-20 01:54 -20.46546 -54.66961 1838 ft 46 kts 41°
2026-04-20 01:54 -20.46367 -54.66787 1837 ft 14 kts 42°
2026-04-20 01:55 -20.46288 -54.66711 1836 ft 16 kts 41°
2026-04-20 01:55 -20.46246 -54.66671 1836 ft 0 kts 41°
2026-04-20 01:55 -20.46238 -54.66664 1836 ft 5 kts 41°
2026-04-20 01:55 -20.46182 -54.66613 1837 ft 8 kts 32°
2026-04-20 01:56 -20.46104 -54.66620 1838 ft 13 kts 340°
2026-04-20 01:56 -20.46012 -54.66660 1838 ft 16 kts 338°
2026-04-20 01:56 -20.45915 -54.66702 1838 ft 15 kts 338°
2026-04-20 01:56 -20.45836 -54.66757 1838 ft 14 kts 283°
2026-04-20 01:57 -20.45840 -54.66828 1838 ft 8 kts 264°
2026-04-20 01:57 -20.45845 -54.66889 1838 ft 8 kts 264°
2026-04-20 01:57 -20.45851 -54.66951 1838 ft 9 kts 264°
2026-04-20 01:57 -20.45856 -54.67006 1838 ft 6 kts 264°
2026-04-20 01:58 -20.45842 -54.67038 1838 ft 5 kts 342°
2026-04-20 01:58 -20.45813 -54.67043 1838 ft 2 kts 353°
2026-04-20 01:58 -20.45812 -54.67043 1838 ft 0 kts 353°